www.pogodaiklimat.ru

Погода и климат >> Архив погоды >> Гондурас >> Ла-Лима


ПОГОДА в Ла-Лиме

  • Прогноз погоды в Ла-Лиме
  • Монитор погоды в Ла-Лиме

АРХИВ ПОГОДЫ в Ла-Лиме

Время (UTC), дата Ветер
(напр.,м/с)
 
Видим.   Явления Облачность Т
(С)
Тd
(С)
f
(%)
Тe
(С)
Тes
(С)
Комфортность P
(гПа)
Po
(гПа)
Тmin
(С)
Tmax
(С)
R
(мм)
R24
(мм)
S
(см)
18 11.09 СВ 5 14 км мгла {туман} 9/5 750 м
[Cu hum Cs]
+32.9 +22.9 56 +43 +48 опасность
перегрева
1011.9 1008.8 +25.3 +32.9
21 11.09 С 8 14 км мгла {туман} 9/4 840 м
[Cu med, cong Cs]
+33.1 +22.8 55 +43 +44 опасность
перегрева
1009.7 1007.6
00 12.09 С 7 12 км мгла {туман} 9/4 800 м
[Cb cap Ac cuf Cs]
+29.8 +23.9 71 +41 +41 опасность
перегрева
1010.0 1006.9 +25.3 +34.2
03 12.09 С 3 10 км мгла {туман} 5/1 750 м
[Sc diur, vesp Ac trans Cs]
+28.3 +24.4 79 +40 +40 очень
душно
1012.4 1009.3
06 12.09 СЗ 2 10 км мгла {туман} 8/1 750 м
[Sc Ac trans Cs]
+27.7 +24.2 81 +39 +39 очень
душно
1011.8 1008.7 +25.3 +34.2
09 12.09 штиль 0 10 км мгла {туман} 5/1 750 м
[Sc Cs]
+25.6 +23.3 87 +34 +34 очень
душно
1010.4 1007.3
12 12.09 штиль 0 15 км 8/0 600 м
[Ac As Cs]
+34.2 +23.9 55 +32 +32 жарко 1011.0 1007.9 +23.9 +34.2
15 12.09 В 3 10 км мгла {туман} 8/0 600 м
[Ac As Cs]
+29.7 +23.5 69 +40 +46 очень
душно
1011.8 1008.6
18 12.09 СВ 4 10 км мгла {туман} 8/3 840 м
[Cu hum Cs]
+34.8 +20.4 43 +41 +51 опасность
перегрева
1010.6 1007.4 +23.9 +34.8
21 12.09 СВ 8 10 км мгла {туман} 8/0 600 м
[Ac As Cs]
+34.3 +23.3 53 +45 +46 опасность
перегрева
1007.9 1004.7
00 13.09 СВ 5 10 км мгла {туман} 8/3 840 м
[Cb cap Cs]
+30.5 +23.0 64 +40 +40 очень
душно
1009.3 1006.1 +23.9 +35.2
03 13.09 С 3 10 км зарница {туман} 9/4 900 м
[Cb cap Ac As]
+27.8 +24.3 81 +39 +39 очень
душно
1012.0 1008.9
06 13.09 ЮЗ 3 10 км в посл. час гроза {дождь} 10/5 180 м
[Cb cap As op]
+24.4 +23.4 94 +33 +33 очень
душно
1012.2 1009.1 +23.9 +35.2 6
09 13.09 штиль 0 10 км мгла {туман} 9/1 660 м
[Sc Ac trans Cs]
+23.8 +22.6 93 +31 +31 очень
душно
1010.6 1007.5
12 13.09 штиль 0 12 км мгла {туман} 9/9 800 м
[Sc Ci sp]
+24.2 +22.8 92 +32 +32 очень
душно
1011.7 1008.6 +23.8 +35.2
15 13.09 ЮЗ 3 10 км мгла {туман} 9/3 840 м
[Cu hum Cs]
+28.7 +23.3 73 +39 +45 очень
душно
1012.1 1009.0
18 13.09 СВ 2 10 км мгла {туман} 8/5 900 м
[Cu hum Cs]
+33.7 +22.4 52 +43 +53 опасность
перегрева
1011.2 1008.1 +23.8 +33.7
21 13.09 СВ 7 10 км мгла {туман} 8/4 900 м
[Cu med, cong Cs]
+34.1 +23.7 55 +45 +47 опасность
перегрева
1008.6 1005.5
00 14.09 СВ 7 10 км мгла {туман} 9/3 900 м
[Cu hum Cs]
+30.1 +23.7 69 +41 +41 опасность
перегрева
1009.5 1006.4 +23.8 +34.1
03 14.09 С 3 10 км мгла {туман} 8/3 840 м
[Sc Cs]
+28.2 +24.5 80 +40 +40 очень
душно
1012.3 1009.1
06 14.09 Ю 3 10 км в посл. час гроза {туман} 9/4 750 м
[Sc Ac As Ci fib]
+25.0 +22.0 83 +32 +32 очень
душно
1012.3 1009.1 +23.8 +34.1
09 14.09 ЮЗ 3 10 км мгла {туман} 8/0 600 м
[Ac As Cs]
+23.9 +22.2 90 +31 +31 очень
душно
1011.0 1007.8
12 14.09 штиль 0 10 км мгла {туман} 8/3 750 м
[Sc Cs]
+23.9 +22.4 91 +31 +31 очень
душно
1011.6 1008.4 +23.7 +34.1
18 14.09 ЮВ 1 10 км мгла {туман} 5/5 840 м
[Cu hum]
+33.2 +23.3 56 +44 +56 опасность
перегрева
1012.0 1009.0 +32.0
21 14.09 СВ 8 10 км мгла {туман} 8/4 840 м
[Cu med, cong Ci fib]
+33.5 +23.7 57 +45 +46 опасность
перегрева
1009.6 1006.6
00 15.09 С 6 10 км гроза без осадков {туман} 9/4 800 м
[Cb cap Ac As]
+29.4 +24.2 74 +41 +41 опасность
перегрева
1011.5 1008.5 +23.7 +33.7
03 15.09 штиль 0 10 км мгла {гроза, туман} 9/4 800 м
[Sc Ac As]
+27.4 +23.3 78 +37 +37 очень
душно
1013.0 1010.0
06 15.09 штиль 0 10 км мгла {туман} 9/4 800 м
[Sc Ac As]
+25.8 +23.7 88 +35 +35 очень
душно
1013.8 1010.8 +23.7 +33.7
09 15.09 штиль 0 10 км мгла {туман} 5/3 720 м
[Sc Ac As]
+24.6 +23.1 91 +33 +33 очень
душно
1012.0 1009.0
12 15.09 В 2 10 км мгла {туман} 9/3 800 м
[Cu hum Ci fib]
+24.1 +23.1 94 +32 +32 очень
душно
1012.0 1009.0 +24.3 +33.7
15 15.09 ЮВ 2 15 км мгла {туман} 9/1 750 м
[Cu hum Ac trans Cs]
+29.0 +23.8 74 +40 +46 очень
душно
1013.7 1010.6
18 15.09 В 2 15 км мгла {туман} 9/5 900 м
[Cu med, cong Cs]
+33.4 +23.4 56 +44 +53 опасность
перегрева
1011.5 1008.5 +21.3 +33.4
21 15.09 С 7 15 км осадки на расстоянии {туман} 9/4 900 м
[Cu med, cong Ac trans Cs]
+32.7 +24.7 63 +46 +47 опасность
перегрева
1009.6 1006.5
00 16.09 С 4 15 км мгла {туман} 9/3 750 м
[Cb cap Ac trans Cs]
+29.3 +24.7 76 +42 +42 опасность
перегрева
1010.7 1007.6 +24.3 +33.8
03 16.09 В 3 10 км гроза, ливневой дождь 8/5 720 м
[Cb cap Ac trans Ci ing]
+24.4 +23.0 92 +32 +32 очень
душно
1011.6 1010.9 33
09 16.09 Ю 2 10 км мгла {туман} 9/3 750 м
[Sc Ac As]
+24.8 +23.1 90 +33 +33 очень
душно
1012.8 1009.7
12 16.09 штиль 0 10 км мгла {туман} 8/3
[Sc Cs]
+24.4 +23.2 93 +33 +33 очень
душно
1013.8 1010.7 +24.4 +33.8
15 16.09 ЮВ 3 14 км мгла {туман} 9/1 750 м
[Cu hum Ac trans Cs]
+28.7 +23.9 75 +40 +44 очень
душно
1014.2 1011.1
18 16.09 В 3 14 км мгла {туман} 8/4 840 м
[Cu hum Cs]
+33.3 +22.0 52 +42 +51 опасность
перегрева
1012.5 1009.4 +24.4 +33.3
21 16.09 СВ 9 12 км гроза без осадков {ливн. осадки} 9/4 800 м
[Cb cap Ac cuf Cs]
+31.0 +26.2 76 +47 +47 опасность
перегрева
1010.1 1006.0 3
00 17.09 СВ 4 12 км мгла {гроза} 9/3 800 м
[Cb cap Ac cuf Cs]
+28.1 +24.2 79 +39 +39 очень
душно
1010.7 1007.6 +24.4 +34.2 3
03 17.09 С 2 10 км зарница {туман} 6/3 750 м
[Cb cap Ac trans Cs]
+27.8 +24.5 82 +39 +39 очень
душно
1012.7 1009.6
06 17.09 ЮВ 1 10 км мгла {туман} 5/1 750 м
[Sc Ac trans Cs]
+26.4 +24.4 89 +37 +37 очень
душно
1012.6 1009.5 +24.4 +34.2
09 17.09 штиль 0 10 км мгла {туман} 6/1 750 м
[Sc Ac trans Cs]
+25.2 +24.0 93 +35 +35 очень
душно
1011.4 1008.3
12 17.09 СВ 2 15 км мгла {туман} 6/1 750 м
[Sc diur, vesp Ac trans Cs]
+23.8 +23.5 98 +32 +32 очень
душно
1013.4 1010.3 +23.8 +34.2
15 17.09 штиль 0 10 км мгла {туман} 3/3 750 м
[Cu hum Ci fib]
+30.6 +24.6 70 +43 +54 опасность
перегрева
1014.6 1011.4
18 17.09 СВ 3 10 км мгла {туман} 3/3 840 м
[Cu med, cong Ci fib]
+34.3 +22.2 49 +43 +56 опасность
перегрева
1013.2 1010.0 +23.8 +34.3
21 17.09 СВ 5 10 км мгла {туман} 3/3 600 м
[Cb cap Ac trans]
+33.8 +23.4 55 +45 +48 опасность
перегрева
1010.3 1007.1
00 18.09 С 5 10 км мгла {туман} 8/3 840 м
[Cu hum Cs]
+30.0 +24.4 72 +42 +42 опасность
перегрева
1011.1 1007.9 +23.8 +34.3
03 18.09 СВ 4 12 км мгла {туман} 5/1 800 м
[Sc Cs]
+29.0 +24.4 76 +41 +41 опасность
перегрева
1013.4 1010.3
06 18.09 Ю 2 10 км зарница {туман} 9/3 750 м
[Cb cap Ac cuf Ci sp]
+27.8 +24.6 83 +39 +39 очень
душно
1014.0 1010.9 +23.8 +34.3
09 18.09 В 2 10 км мгла {туман} 9/3 720 м
[Sc Ac As]
+26.7 +24.8 89 +38 +38 очень
душно
1012.9 1009.8
12 18.09 штиль 0 12 км мгла {гроза, дождь} 9/5 420 м
[Cu hum Ac As]
+25.0 +24.0 94 +34 +34 очень
душно
1013.6 1010.5 +24.8 +34.3 1
15 18.09 штиль 0 15 км мгла {туман} 6/1 750 м
[Cu hum Ac trans Cs]
+29.0 +24.0 74 +40 +50 очень
душно
1014.1 1011.0

 

Местоположение метеостанции Ла-Лима (Гондурас): широта 15.45 долгота -87.93 высота над уровнем моря 31 м.

В архиве по умолчанию представлена погода в Ла-Лиме за последнюю неделю. Архивные данные за месяц целиком и за предыдущие месяцы, начиная с января 2011 года, Вы можете получить, выбрав интересующий диапазон дат из раскрывающегося списка и нажав кнопку "Ввод!".


*Определитесь, кто Вы:
робот инопланетянин человек

Внимание! Время в таблицах - всемирное. Для получения местного времени необходимо прибавить поправку, которая равна -6 ч.

Смотрите также архив погоды в соседних городах и на ближайших метеорологических станциях:

Погода в Теле (Гондурас) (57 км)
Погода в Пуэрто-Барриосе (Гватемала) (78 км)
Погода в Йоро (Гондурас) (93 км)
Погода в Санта-Роза-де-Копане (Гондурас) (118 км)
Погода в Ла-Сейбе (Гондурас) (119 км)
Погода в Ла-Эсперансе (Гондурас) (128 км)
Погода в Тегусигальпе (Гондурас) (174 км)
Погода в Нуэва Окотепеке (Гондурас) (176 км)
Погода на Роатане (Гондурас) (180 км)
Погода в Трухильо (Гондурас) (221 км)

Пояснения к столбцам:

Ветер - указаны скорость ветра в м/с - средняя за 10 мин, порывы в срок и между сроками (в фигурных скобках) и направление, откуда дует ветер: С - северный, СВ - северо-восточный, В - восточный, ЮВ - юго-восточный, Ю - южный, ЮЗ - юго-западный, З - западный, СЗ - северо-западный.
Видимость - горизонтальная дальность видимости в метрах или километрах. При видимости от 1 до 10 км при отсутствии осадков обычно наблюдается дымка, при ухудшении видимости до 1 км и менее - туман. В сухую погоду видимость может ухудшаться дымом, пылью или мглою.
Явления - указаны атмосферные явления, наблюдавшиеся в срок или в последний час перед сроком; фигурными скобками обозначены явления, наблюдавшиеся между сроками (за 1-3 часа до срока); квадратными скобками обозначены град или гололедные отложения с указанием их диаметра в мм.
Облачность - указаны через наклонную черту общая и нижняя облачность в баллах и высота нижней границы облаков в метрах; квадратными скобками обозначены формы облаков: Ci - перистые, Cs - перисто-слоистые, Cc - перисто-кучевые, Ac - высококучевые, As - высокослоистые, Sc - слоисто-кучевые, Ns - слоисто-дождевые, Cu - кучевые, Cb - кучево-дождевые. Подробнее классификацию облаков см. в Атласе облаков (PDF).
T - Температура воздуха - температура, измеренная на высоте 2 м над землей.
Td - Температура точки росы - температура, при понижении до которой содержащийся в воздухе водяной пар достигнет насыщения.
f - Относительная влажность воздуха - влажноcть воздуха, измеренная на высоте 2 м над землей.
Te - Эффективная температура - температура, которую ощущает одетый по сезону человек в тени. Характеристика душности погоды. При расчете учитывается влияние влажности воздуха и скорости ветра на теплоощущения человека.
Tes - Эффективная температура на солнце - температура, которую ощущает человек, с поправкой на солнечный нагрев. Характеристика знойности погоды. Зависит от высоты солнца над горизонтом, облачности и скорости ветра. Ночью, в пасмурную погоду, а также при ветре 12 м/с и более поправка равна нулю.
P - Атмосферное давление - приведенное к уровню моря атмосферное давление.
Po - Атмосферное давление - измеренное на уровне метеостанции атмосферное давление.
Tmin - Минимальная температура - минимум температуры воздуха на высоте 2 м над землей.
Tmax - Максимальная температура - максимум температуры воздуха на высоте 2 м над землей.
R - Количество осадков - Количество выпавших осадков за период времени, мм. При наведении курсора мыши на число - период времени, за который выпало указанное количество осадков.
R24 - Количество осадков - Количество выпавших осадков за 24 часа, мм.
S - Снежный покров - Высота снежного покрова, см. При наведении курсора мыши на число - состояние снежного покрова и степень покрытия местности в баллах.